STARLINK-11396, 62015

Orbit data source: Space-Track

STARLINK-11396, 62015 is a payload satellite owned by SpaceX/Seattle (US) in LEO that was launched on Mon, 18 Nov 2024 UTC via an FALCON 9 launch vehicle from the Air Force Western Test Range (AFWTR). Payloads include a variety of satellites, spacecraft, and rockets equipped with specific instruments for various scientific and technological missions. These include communications satellites like Starlink; space stations such as the ISS; scientific satellites like the Hubble; Earth observation satellites from companies like Planet Labs, Umbra, and HawkEye 360; GPS; miniature CubeSats for education and research; and military/defense satellites.

Loading next visibility...
STARLINK-11396 details
Identifier
62015, 2024-213H
Orbit
LEO
Last TLE update13 hours ago
Origin
Flag of USSpaceX/Seattle (US)
ManufacturerSpaceX/Seattle
MissionOperational spacecraft
Bus & MotorSTARLINK V2M, Unknown motor
Mass730 kg wet, ~700 kg dry
Launch date (UTC)
2024-11-18 (1 month ago)
Launch vehicle
FALCON 9
Launch site
Air Force Western Test Range (AFWTR)
Object type
Payload
Rocket body
Debris
Shape & HBRUnknown
Radar Cross SectionLarge (>1 m²)

Expand to show TLE details & history

TLE from 13 hours ago
0 STARLINK-11396
1 62015U 24213H   24360.87155882 -.00001235  00000-0 -35456-5 0  9996
2 62015  53.1574  46.7013 0001913  56.6405 303.4799 15.76712030  6803
Epoch: 2024-12-25T20:55Z
Definitive object data (Epoch: 2024-12-25T20:55:02.682Z)
Latitude0.00002°
Longitude-1.91895°
Altitude339.973 km
Speed7.706 km/s
True Right ascension03h 06m 48s
True Declination0° 00' 00"
Sunlit
Object was in full shadow at TLE epoch
Visualization TLE readout
Latitude-52.3356°
Longitude-109.82914°
Altitude359.1 km
Speed7.693 km/s
Apparent Right ascension20h 48m 03s
Apparent Declination-46° 45' 25"
Sunlit
Object is in daylight
Visualization observer readout
Local Sidereal Time09:32:28
Azimuth133.979° SE
Elevation-79.433°
Doppler factor1
Orbital elements
Apogee altitude341.311 km
Perigee altitude338.74 km
Semi-major axis6,718.163 km
Eccentricity0.0001913
Inclination53.1574°
RAAN46.7013°
Arg. of periapsis56.6405°
True anomaly303.46161°
Mean anomaly303.4799°
Eccentric anomaly303.47076°
Mean motion3.94155 °/min
BSTAR-0.0000035456
Orbital period91.33 mins
Loading maneuver chart data...
Loading historical data...
Loading historical data...
Loading historical data...
Loading historical data...
Loading historical data...
Loading historical data...
Loading historical data...

STARLINK-11396 Visibility forecast

Observer location: undefined°, undefined

Span
Click to sort rows by Start time (UTC) header in descending order
Start Az.
Max El. time (UTC)
Max El. Az.
Max El.
End time (UTC)
End Az.
4 mins2024-12-26 12:37:20.294Z323.386° NNW2024-12-26 12:39:20.294Z49.019° ENE38.601°2024-12-26 12:41:20.294Z113.127° SE
|